Waarnemingen

Advertentie
Mijn weer
Solenzara, Frankrijk (7765): temperatuur & dauwpunt: 20.05.2018 17:00:00 - 26.05.2018 17:00:00 (CEST)Solenzara, Frankrijk (7765): temperatuur 5cm: 20.05.2018 17:00:00 - 26.05.2018 17:00:00 (CEST)Solenzara, Frankrijk (7765): temperatuur -20cm: 20.05.2018 17:00:00 - 26.05.2018 17:00:00 (CEST)Solenzara, Frankrijk (7765): windsnelheid & windstoten: 20.05.2018 17:00:00 - 26.05.2018 17:00:00 (CEST)Solenzara, Frankrijk (7765): windrichting: 20.05.2018 17:00:00 - 26.05.2018 17:00:00 (CEST)Solenzara, Frankrijk (7765): luchtdruk: 20.05.2018 17:00:00 - 26.05.2018 17:00:00 (CEST)Solenzara, Frankrijk (7765): zicht: 20.05.2018 17:00:00 - 26.05.2018 17:00:00 (CEST)Solenzara, Frankrijk (7765): Zonneschijnduur: 20.05.2018 17:00:00 - 26.05.2018 17:00:00 (CEST)Solenzara, Frankrijk (7765): neerslag: 20.05.2018 17:00:00 - 26.05.2018 17:00:00 (CEST)
Datum & Tijd tt [°C] td [°C] tt 5cm [°C] tt -20cm [°C] ff [km/u] ff [kn] fx [km/u] fx [kn] dd ppp [hPa] vv [km] sd [min] rr [mm]
26.05.2018 17:00:00 24,8 16,8 27,2 24,7 9 5 16 8 ZZO 1018,2 48 60 0,0
26.05.2018 16:00:00 24,9 17,6 29,9 24,3 12 7 18 10 ZO 1018,2 40 60 0,0
26.05.2018 15:00:00 24,8 18,3 29,8 23,8 9 5 16 9 ZZO 1018,6 32 60 0,0
26.05.2018 14:00:00 24,7 18,4 30,1 23,4 9 5 19 10 ZO 1019,0 32 60 0,0
26.05.2018 13:00:00 24,0 16,3 30,1 23,0 10 6 18 10 ZZO 1019,1 33 60 0,0
26.05.2018 12:00:00 23,9 19,0 29,8 22,8 10 5 17 9 OZO 1019,1 37 60 0,0
26.05.2018 11:00:00 22,9 17,1 28,4 22,6 7 4 14 8 OZO 1019,0 41 60 0,0
26.05.2018 10:00:00 22,6 17,9 28,1 22,6 9 5 13 7 O 1018,6 20 60 0,0
26.05.2018 09:00:00 22,9 17,4 27,2 22,7 5 3 8 5 O 1018,4 18 60 0,0
26.05.2018 08:00:00 21,4 16,8 20,7 23,0 4 2 6 4 N 1018,3 26 60 0,0
26.05.2018 07:00:00 18,2 14,5 16,5 23,1 5 3 12 6 W 1018,1 39 41 0,0
26.05.2018 06:00:00 17,2 14,3 16,4 23,3 7 4 11 6 W 1017,6 35 0 0,0
26.05.2018 05:00:00 17,5 14,6 16,8 23,5 8 4 13 7 W 1017,5 34 0 0,0
26.05.2018 04:00:00 17,5 14,8 16,8 23,8 8 4 12 6 W 1017,7 32 0 0,0
26.05.2018 03:00:00 17,8 14,7 17,0 24,0 7 4 13 7 W 1017,3 34 0 0,0
26.05.2018 02:00:00 18,1 15,0 17,3 24,2 7 4 12 7 W 1017,4 33 0 0,0
26.05.2018 01:00:00 18,6 15,1 17,7 24,4 5 3 11 6 WNW 1017,5 37 0 0,0
26.05.2018 00:00:00 19,3 15,6 18,2 24,6 10 5 18 10 NNW 1017,7 34 0 0,0
25.05.2018 23:00:00 19,3 15,6 18,5 24,8 6 3 8 5 W 1017,2 38 0 0,0
25.05.2018 22:00:00 20,1 16,7 18,3 24,9 5 3 6 4 NW 1016,9 26 0 0,0
25.05.2018 21:00:00 20,4 17,0 18,7 24,9 3 1 10 5 ZZW 1016,2 35 4 0,0
25.05.2018 20:00:00 21,6 17,2 22,4 24,9 8 4 14 8 Z 1015,8 47 60 0,0
25.05.2018 19:00:00 22,3 16,6 25,6 24,7 9 5 14 8 ZZO 1015,7 33 60 0,0
25.05.2018 18:00:00 22,6 15,7 25,3 24,4 8 4 16 9 ZZO 1015,8 60 60 0,0
25.05.2018 17:00:00 22,9 17,8 25,8 24,0 10 5 17 9 ZO 1016,1 35 60 0,0
25.05.2018 16:00:00 22,9 18,0 27,8 23,5 9 5 19 10 ZO 1016,3 35 60 0,0
25.05.2018 15:00:00 22,8 17,7 27,7 23,1 10 5 18 10 OZO 1016,4 33 60 0,0
25.05.2018 14:00:00 22,9 18,7 28,6 22,6 8 4 21 12 ZO 1016,5 36 60 0,0
25.05.2018 13:00:00 22,1 18,3 28,4 22,2 11 6 20 11 ZZO 1016,6 40 60 0,0
25.05.2018 12:00:00 22,4 18,8 28,3 22,0 13 7 22 12 ZZO 1016,8 20 60 0,0
25.05.2018 11:00:00 22,3 18,1 27,4 21,9 10 6 16 8 ZZO 1016,7 32 60 0,0
25.05.2018 10:00:00 21,6 17,2 26,5 21,9 9 5 13 7 ZO 1016,7 33 60 0,0
25.05.2018 09:00:00 21,7 17,3 25,9 22,0 5 3 8 4 OZO 1016,9 18 60 0,0
25.05.2018 08:00:00 19,8 15,6 19,6 22,2 2 1 10 5 W 1016,9 32 60 0,0
25.05.2018 07:00:00 16,8 13,7 15,4 22,3 6 4 13 7 W 1016,8 43 42 0,0
25.05.2018 06:00:00 16,0 13,5 15,2 22,5 9 5 14 8 W 1016,8 49 0 0,0
25.05.2018 05:00:00 16,5 14,7 15,1 22,8 5 3 16 9 NNW 1016,9 27 0 0,0
25.05.2018 04:00:00 16,7 14,2 16,0 23,0 8 5 14 8 W 1017,0 45 0 0,0
25.05.2018 03:00:00 16,9 14,4 16,3 23,2 8 4 14 8 W 1017,2 44 0 0,0
25.05.2018 02:00:00 17,2 14,7 16,6 23,4 8 4 14 8 W 1017,3 42 0 0,0
25.05.2018 01:00:00 17,4 15,0 16,8 23,6 8 5 13 7 W 1017,6 37 0 0,0
25.05.2018 00:00:00 17,8 15,6 17,0 23,7 7 4 11 6 W 1017,6 36 0 0,0
24.05.2018 23:00:00 18,3 15,9 17,5 23,9 6 4 11 6 W 1017,5 36 0 0,0
24.05.2018 22:00:00 19,1 16,1 17,5 24,0 4 2 9 5 NW 1017,5 20 0 0,0
24.05.2018 21:00:00 20,2 16,6 18,9 24,0 4 2 6 3 W 1017,0 56 3 0,0
24.05.2018 20:00:00 20,9 16,9 21,2 23,9 4 2 10 5 ZO 1017,0 60 55 0,0
24.05.2018 19:00:00 21,7 17,1 23,3 23,8 6 4 15 8 O 1016,9 37 60 0,0
24.05.2018 18:00:00 21,9 17,5 24,6 23,5 8 4 16 9 OZO 1017,2 42 60 0,0
24.05.2018 17:00:00 21,9 17,5 24,2 23,1 6 4 16 8 O 1017,2 42 54 0,0
24.05.2018 16:00:00 22,5 17,4 26,1 22,6 9 5 17 9 OZO 1017,4 45 60 0,0
24.05.2018 15:00:00 21,9 16,2 25,6 22,2 8 4 18 10 OZO 1017,8 46 55 0,0
24.05.2018 14:00:00 21,9 16,4 27,6 21,7 10 6 19 11 ZZO 1018,2 39 60 0,0
24.05.2018 13:00:00 22,9 17,6 29,0 21,3 11 6 16 9 ZZO 1018,6 41 60 0,0
24.05.2018 12:00:00 21,9 15,5 27,6 21,0 11 6 20 11 ZO 1018,9 47 60 0,0
24.05.2018 11:00:00 22,3 14,4 27,8 20,8 11 6 16 8 OZO 1018,6 50 60 0,0
24.05.2018 10:00:00 22,3 14,2 27,4 20,8 8 4 13 7 O 1018,3 52 60 0,0
24.05.2018 09:00:00 22,6 12,8 25,5 20,9 4 2 9 5 ONO 1018,3 60 60 0,0
24.05.2018 08:00:00 19,3 13,2 19,1 21,1 5 3 14 8 W 1018,3 58 60 0,0
24.05.2018 07:00:00 16,3 12,3 14,4 21,3 8 5 15 8 W 1017,9 58 52 0,0
24.05.2018 06:00:00 15,1 11,9 14,3 21,4 9 5 16 9 W 1017,6 60 0 0,0
24.05.2018 05:00:00 15,3 12,1 14,5 21,6 9 5 14 8 W 1017,8 60 0 0,0
24.05.2018 04:00:00 15,7 12,6 14,8 21,8 8 4 20 11 W 1017,8 60 0 0,0
24.05.2018 03:00:00 16,1 13,0 15,3 22,0 9 5 19 10 W 1017,9 60 0 0,0
24.05.2018 02:00:00 16,8 13,3 15,8 22,2 7 4 14 8 W 1018,1 60 0 0,0
24.05.2018 01:00:00 16,8 13,7 16,0 22,4 9 5 16 9 W 1018,4 60 0 0,0
24.05.2018 00:00:00 16,9 14,0 16,3 22,5 9 5 16 9 W 1018,8 60 0 0,0
23.05.2018 23:00:00 17,0 14,5 16,4 22,7 9 5 15 8 W 1018,5 56 0 0,0
23.05.2018 22:00:00 17,5 15,1 16,9 22,8 8 4 11 6 W 1018,1 47 0 0,0
23.05.2018 21:00:00 18,8 16,0 17,9 22,8 4 2 10 5 W 1017,2 48 0 0,0
23.05.2018 20:00:00 19,9 15,7 19,8 22,8 3 2 11 6 Z 1016,9 60 19 0,0
23.05.2018 19:00:00 21,3 15,8 24,3 22,7 9 5 13 7 OZO 1016,2 37 60 0,0
23.05.2018 18:00:00 21,0 15,3 21,8 22,6 6 4 13 7 Z 1016,5 53 38 0,0
23.05.2018 17:00:00 20,9 15,7 22,2 22,4 7 4 12 6 ZO 1016,8 47 10 0,0
23.05.2018 16:00:00 20,6 16,0 22,3 22,1 6 4 14 7 ZO 1017,1 40 1 0,0
23.05.2018 15:00:00 20,8 16,2 24,0 21,8 8 4 14 8 ZO 1017,4 42 1 0,0
23.05.2018 14:00:00 20,7 15,9 22,9 21,4 6 3 16 8 ZO 1017,5 46 0 0,0
23.05.2018 13:00:00 20,9 15,4 23,7 21,0 11 6 21 11 ZO 1017,2 13 60 0,0
23.05.2018 12:00:00 21,4 15,9 24,6 20,6 13 7 19 10 O 1016,9 19 60 0,0
23.05.2018 11:00:00 21,5 15,8 26,5 20,5 12 6 17 9 O 1016,7 50 60 0,0
23.05.2018 10:00:00 21,1 15,4 26,6 20,5 8 4 14 7 O 1016,6 58 60 0,0
23.05.2018 09:00:00 21,0 14,9 26,0 20,5 4 2 9 5 NO 1016,2 42 60 0,0
23.05.2018 08:00:00 18,5 13,8 18,6 20,6 0 0 13 7 N 1015,9 50 60 0,0
23.05.2018 07:00:00 15,9 12,8 14,6 20,7 7 4 18 10 WNW 1015,4 41 38 0,0
23.05.2018 06:00:00 15,3 13,0 14,6 20,9 9 5 18 10 W 1014,7 60 0 0,0
23.05.2018 05:00:00 15,6 13,4 15,0 21,0 9 5 16 9 W 1014,8 60 0 0,0
23.05.2018 04:00:00 16,0 13,8 15,2 21,1 8 4 13 7 W 1014,7 60 0 0,0
23.05.2018 03:00:00 17,1 13,8 15,6 21,2 0 0 11 6 N 1014,6 60 0 0,0
23.05.2018 02:00:00 16,9 14,4 16,5 21,4 5 3 11 6 WNW 1014,9 60 0 0,0
23.05.2018 01:00:00 17,4 14,5 16,6 21,5 6 3 18 10 W 1014,9 60 0 0,0
23.05.2018 00:00:00 18,0 14,5 17,5 21,6 8 4 21 12 NNW 1014,7 60 0 0,0
22.05.2018 23:00:00 18,1 14,6 17,5 21,7 16 8 26 14 NNW 1014,4 60 0 0,0
22.05.2018 22:00:00 17,7 14,2 17,2 21,9 13 7 25 13 NNW 1013,8 60 0 0,0
22.05.2018 21:00:00 17,8 14,9 17,1 21,9 20 11 37 20 NNW 1013,1 18 0 0,0
22.05.2018 20:00:00 18,8 15,5 18,7 22,0 15 8 26 14 NNW 1012,8 60 0 0,0
22.05.2018 19:00:00 19,8 16,1 19,6 22,0 6 3 33 18 ZZO 1012,4 60 0 0,0
22.05.2018 18:00:00 19,3 15,6 19,9 21,9 21 11 38 20 Z 1012,1 48 8 0,0
22.05.2018 17:00:00 19,5 15,4 20,6 21,8 26 14 43 23 ZZO 1012,3 30 32 0,0
22.05.2018 16:00:00 20,2 16,6 21,8 21,8 25 14 40 22 ZZO 1012,3 37 22 0,0
22.05.2018 15:00:00 20,8 16,0 20,1 21,7 28 15 44 24 ZZO 1012,3 20 25 0,0
22.05.2018 14:00:00 18,8 15,3 18,1 21,5 27 14 44 24 ZZO 1012,5 15 11 1,6
22.05.2018 13:00:00 19,4 16,4 18,6 21,3 15 8 26 14 Z 1012,9 31 0 0,8
22.05.2018 12:00:00 19,6 14,2 23,4 21,0 6 3 17 9 OZO 1012,6 47 34 0,0
22.05.2018 11:00:00 19,7 15,1 23,1 20,9 8 4 15 8 OZO 1012,5 20 52 0,0
22.05.2018 10:00:00 19,8 15,2 23,1 20,9 5 3 14 8 ZO 1012,1 20 54 0,0
22.05.2018 09:00:00 19,3 15,8 21,9 20,9 10 5 14 8 ZO 1012,1 20 60 0,0
22.05.2018 08:00:00 18,2 15,3 18,9 21,0 2 1 8 4 ZO 1011,5 20 60 0,0
22.05.2018 07:00:00 16,3 14,8 15,0 21,2 3 1 6 4 WNW 1011,4 20 19 0,0
22.05.2018 06:00:00 15,7 14,1 14,9 21,4 3 2 12 6 N 1011,3 20 0 0,0
22.05.2018 05:00:00 15,5 14,0 14,8 21,5 8 4 19 10 NW 1010,8 20 0 4,9
22.05.2018 04:00:00 16,6 15,1 16,0 21,7 7 4 17 9 WNW 1011,4 19 0 0,2
22.05.2018 03:00:00 16,8 15,7 16,2 21,8 4 2 16 8 N 1011,4 20 0 2,0
22.05.2018 02:00:00 17,0 15,5 16,2 21,9 6 3 10 6 ZW 1011,7 8 0 1,8
22.05.2018 01:00:00 17,2 15,4 16,9 22,1 5 3 8 4 WZW 1012,0 20 0 0,0
22.05.2018 00:00:00 17,3 15,3 16,8 22,2 3 2 7 4 WZW 1012,0 20 0 0,0
21.05.2018 23:00:00 17,4 15,4 17,2 22,3 4 2 7 4 WZW 1012,1 20 0 0,0
21.05.2018 22:00:00 17,6 15,8 17,3 22,4 3 2 6 3 WZW 1012,0 20 0 0,0
21.05.2018 21:00:00 17,9 15,5 17,4 22,5 2 1 8 4 WNW 1011,6 20 0 0,0
21.05.2018 20:00:00 17,8 15,6 17,3 22,6 5 3 17 9 Z 1011,3 20 0 0,0
21.05.2018 19:00:00 17,7 15,7 17,0 22,6 13 7 23 12 Z 1011,3 20 0 0,0
21.05.2018 18:00:00 17,8 15,6 17,5 22,6 16 8 23 13 Z 1011,3 20 0 0,0
21.05.2018 17:00:00 17,9 16,1 17,5 22,5 12 7 39 21 ZZO 1011,2 20 0 0,4
21.05.2018 16:00:00 18,3 15,9 17,7 22,3 27 15 41 22 Z 1011,6 20 0 0,0
21.05.2018 15:00:00 21,2 17,0 24,1 22,1 9 5 18 10 OZO 1011,6 20 21 0,0
21.05.2018 14:00:00 21,3 16,7 24,6 22,0 9 5 21 11 ONO 1011,9 20 11 0,0
21.05.2018 13:00:00 21,3 16,5 24,4 21,9 11 6 17 9 ONO 1012,2 20 7 0,0
21.05.2018 12:00:00 21,1 16,9 22,4 21,8 9 5 16 9 NO 1012,4 20 0 0,0
21.05.2018 11:00:00 20,9 14,5 22,4 21,8 6 3 13 7 NO 1012,4 40 0 0,0
21.05.2018 10:00:00 20,6 14,7 22,3 21,9 10 5 14 8 NNO 1012,3 42 0 0,0
21.05.2018 09:00:00 20,9 14,3 20,1 22,0 11 6 15 8 N 1012,2 35 0 0,0
21.05.2018 08:00:00 19,0 12,7 18,6 22,1 6 4 14 8 W 1012,1 59 6 0,0
21.05.2018 07:00:00 17,7 11,9 17,0 22,3 6 3 17 9 WNW 1011,9 59 0 0,0
21.05.2018 06:00:00 17,6 11,6 16,9 22,5 10 5 15 8 W 1012,1 60 0 0,0
21.05.2018 05:00:00 17,9 11,5 17,2 22,7 10 5 14 7 W 1012,2 60 0 0,0
21.05.2018 04:00:00 18,0 11,1 17,5 22,9 10 5 19 10 WNW 1012,3 60 0 0,0
21.05.2018 03:00:00 17,9 11,2 16,9 23,1 10 5 17 9 W 1012,2 60 0 0,0
21.05.2018 02:00:00 17,3 12,2 16,6 23,3 11 6 22 12 W 1012,5 60 0 0,0
21.05.2018 01:00:00 17,8 13,1 17,0 23,5 10 5 19 10 W 1013,0 60 0 0,0
21.05.2018 00:00:00 18,1 13,8 17,3 23,6 6 4 13 7 W 1013,4 58 0 0,0
20.05.2018 23:00:00 18,5 14,0 17,7 23,8 5 3 15 8 NW 1013,7 56 0 0,0
20.05.2018 22:00:00 19,2 15,1 16,5 23,8 9 5 13 7 NNW 1013,6 52 0 0,0
20.05.2018 21:00:00 19,5 14,9 16,5 23,9 0 0 5 3 N 1012,9 13 0 0,0
20.05.2018 20:00:00 20,5 15,9 20,8 23,8 5 3 12 6 Z 1012,6 58 47 0,0
20.05.2018 19:00:00 21,2 16,4 23,5 23,6 9 5 14 8 ZZO 1012,3 53 55 0,0
20.05.2018 18:00:00 22,4 14,5 26,1 23,3 8 4 12 7 OZO 1012,4 42 60 0,0
20.05.2018 17:00:00 22,5 15,3 25,0 23,0 6 4 14 8 ONO 1012,6 35 60 0,0

tt = temperatuur
td = dauwpunt
tt 5cm = temperatuur 5cm
tt -20cm = temperatuur -20cm
ff = windsnelheid
fx = windstoten
dd = windrichting
ppp = luchtdruk
vv = zicht
sd = Zonneschijnduur
rr = neerslag

Weerstations in de omgeving